NIEUW!!! Volg onze weer- en natuurfoto's op Instagram @ weerstationmaaseik.be

WS Maaseik 1 Meer informatie WS Maaseik 1


WS Maaseik 2 Meer informatie WS Maaseik 2


Regen radar Meer informatie rain snow radar


Bezoek onze andere website:

Vorige versie
weerstation Maaseik


Bezoek ook eens deze sites:

Weerstation Geleen

Weerstation Luyksgestel



Het weer levert geen direct gevaar op.    Er zijn geen waarschuwingen afgegeven.

15 daagse weersverwachting Newcastle upon Tyne (GB)

  • Overzicht
  • Per uur
  • 15 dagen
  • Extra
  • Vergelijk
  • Kaarten
  • Dagkaart
  • Meer »
  • Info
  • Statistieken
  • Directe link
    Temp 6h Neerslag Wind  
 06:56     19:03    Daglengte: 12:07 Morgen
01:00
15°
9.2 mm
2
07:00
13°
 
3
13:00
18°
 
4
19:00
15°
 
3
 06:57     19:00    Daglengte: 12:03 Dinsdag 24 Sep
01:00
14°
5.7 mm
4
07:00
14°
2.6 mm
4
13:00
16°
13.1 mm
3
19:00
15°
23.3 mm
1
 06:59     18:58    Daglengte: 11:59 Woensdag 25 Sep
01:00
14°
22.3 mm
2
07:00
12°
20.8 mm
2
13:00
17°
17.0 mm
3
19:00
15°
26.4 mm
2
Locatie info
Region: England
Latitude: 54.9779°N
Longitude: -1.6116°E
54 masl
Postcode: NE1 8
Temp/Neerslag /Baro Onweer/Dauwpunt
    Temp Baro 1h Neerslag Dauwpunt Wind UV Bewolking  
 06:54     19:05    Daglengte: 12:11 Vandaag
23:00
15°
1002.0 hPa 2.1 mm
82%
14.3°
2
Windvlaag: 2 m/s
91%
 06:56     19:03    Daglengte: 12:07 Morgen
00:00
15°
1002.2 hPa 1.5 mm
81%
14.2°
2
Windvlaag: 2 m/s
88%
01:00
15°
1002.6 hPa 1.9 mm
65%
14.4°
2
Windvlaag: 1.8 m/s
86%
02:00
15°
1003.0 hPa
16%
14.2°
2
Windvlaag: 2.2 m/s
83%
03:00
15°
1002.9 hPa
17%
14.0°
2
Windvlaag: 2.2 m/s
85%
04:00
14°
1003.1 hPa
16%
13.3°
3
Windvlaag: 2.2 m/s
80%
05:00
14°
1003.5 hPa
14%
12.8°
2
Windvlaag: 2.2 m/s
84%
06:00
13°
1003.9 hPa
14%
12.5°
3
Windvlaag: 2.6 m/s
77%
07:00
13°
1004.5 hPa
14%
12.2°
3
Windvlaag: 2.8 m/s
81%
08:00
13°
1005.1 hPa
56%
12.3°
3
Windvlaag: 2.8 m/s
82%
09:00
14°
1005.5 hPa
23%
12.7°
3
Windvlaag: 2.6 m/s
84%
10:00
16°
1005.7 hPa
18%
12.9°
3
Windvlaag: 2.5 m/s
73%
11:00
17°
1005.9 hPa
18%
12.6°
3
Windvlaag: 2.4 m/s
30%
12:00
17°
1005.9 hPa
66%
12.5°
3
Windvlaag: 2.2 m/s
11%
13:00
18°
1006.1 hPa
81%
11.3°
4
Windvlaag: 2.5 m/s
12%
14:00
18°
1006.2 hPa
82%
10.1°
4
Windvlaag: 3 m/s
6% warningclass
15:00
18°
1006.4 hPa
77%
9.8°
4
Windvlaag: 3.2 m/s
35%
16:00
18°
1006.1 hPa
26%
9.2°
4
Windvlaag: 3.2 m/s
66%
17:00
18°
1006.0 hPa
14%
8.9°
4
Windvlaag: 3.2 m/s
69%
18:00
16°
1006.0 hPa
14%
9.8°
3
Windvlaag: 3.3 m/s
59%
19:00
15°
1005.9 hPa
14%
9.9°
3
Windvlaag: 3.1 m/s
50%
20:00
14°
1005.8 hPa
14%
9.7°
3
Windvlaag: 2.9 m/s
65%
21:00
14°
1005.5 hPa
14%
9.7°
4
Windvlaag: 3 m/s
67%
22:00
14°
1005.2 hPa
14%
10.1°
4
Windvlaag: 4.1 m/s
67%
23:00
14°
1004.8 hPa 1.8 mm
24%
11.0°
5
Windvlaag: 4.3 m/s
87%
 06:57     19:00    Daglengte: 12:03 Dinsdag 24 Sep
00:00
14°
1004.0 hPa 2.1 mm
82%
11.5°
5
Windvlaag: 4.6 m/s
87%
01:00
14°
1003.4 hPa 1.8 mm
82%
11.6°
4
Windvlaag: 4.7 m/s
91%
02:00
14°
1002.8 hPa 2.6 mm
82%
12.0°
4
Windvlaag: 4.1 m/s
89%
03:00
14°
1001.9 hPa
82%
12.4°
5
Windvlaag: 4.9 m/s
88%
04:00
14°
1001.1 hPa
78%
13.1°
4
Windvlaag: 4.6 m/s
90%
05:00
14°
1000.4 hPa
23%
13.2°
4
Windvlaag: 4.1 m/s
89%
06:00
14°
999.8 hPa
23%
13.6°
4
Windvlaag: 3.9 m/s
84%
07:00
14°
999.8 hPa
23%
13.6°
4
Windvlaag: 3.3 m/s
86%
08:00
15°
999.5 hPa
59%
13.7°
4
Windvlaag: 3.1 m/s
86%
09:00
15°
999.1 hPa
30%
13.8°
4
Windvlaag: 3 m/s
89%
10:00
16°
998.8 hPa 3.1 mm
22%
14.4°
3
Windvlaag: 2.6 m/s
88%
11:00
16°
998.3 hPa 3.3 mm
15%
15.0°
3
Windvlaag: 2.1 m/s
88%
12:00
16°
997.9 hPa 2.5 mm
77%
14.9°
3
Windvlaag: 2.3 m/s
88%
13:00
16°
997.7 hPa 4.3 mm
82%
14.9°
3
Windvlaag: 2.4 m/s
87%
14:00
16°
997.2 hPa 3.9 mm
82%
15.1°
3
Windvlaag: 2.2 m/s
91%
15:00
16°
996.8 hPa 2.9 mm
80%
15.2°
2
Windvlaag: 2.2 m/s
91%
16:00
16°
995.7 hPa 3.8 mm
100%
15.3°
2
Windvlaag: 2.3 m/s
100%
17:00
16°
995.3 hPa 4.1 mm
100%
15.1°
2
Windvlaag: 1.5 m/s
99%
18:00
15°
995.2 hPa 4.3 mm
100%
14.7°
2
Windvlaag: 1.2 m/s
100%
19:00
15°
995.3 hPa 4.4 mm
100%
14.2°
1
Windvlaag: 1.2 m/s
100%
20:00
15°
995.3 hPa 3.2 mm
100%
13.9°
1
Windvlaag: 1.1 m/s
100%
21:00
14°
995.5 hPa 4.5 mm
100%
13.7°
1
Windvlaag: 1 m/s
99%
22:00
14°
995.4 hPa 4.4 mm
100%
13.5°
2
Windvlaag: 0.7 m/s
97%
23:00
14°
995.2 hPa 3.4 mm
100%
13.4°
3
Windvlaag: 0.4 m/s
93%
 06:59     18:58    Daglengte: 11:59 Woensdag 25 Sep
00:00
14°
995.1 hPa 3.4 mm
100%
13.2°
2
Windvlaag: 0.5 m/s
92%
01:00
14°
995.1 hPa 3.3 mm
93%
13.1°
2
Windvlaag: 0.4 m/s
91%
02:00
14°
995.2 hPa 4.5 mm
84%
12.8°
2
Windvlaag: 0.3 m/s
92%
03:00
13°
995.3 hPa 4.2 mm
35%
12.8°
2
Windvlaag: 0.3 m/s
94%
04:00
13°
995.5 hPa 4.1 mm
35%
12.5°
2
Windvlaag: 0.3 m/s
93%
05:00
13°
995.6 hPa 4.0 mm
21%
12.2°
2
Windvlaag: 0.4 m/s
80%
06:00
12°
995.8 hPa 4.0 mm
24%
12.0°
2
Windvlaag: 0.7 m/s
81%
07:00
12°
996.1 hPa
78%
11.9°
2
Windvlaag: 0.7 m/s
90%
08:00
12°
996.5 hPa 3.0 mm
97%
11.9°
2
Windvlaag: 0.8 m/s
84%
09:00
13°
996.9 hPa 3.2 mm
100%
12.3°
2
Windvlaag: 0.7 m/s
83%
10:00
14°
997.3 hPa 3.0 mm
97%
12.6°
2
Windvlaag: 0.9 m/s
78%
11:00
15°
997.8 hPa
80%
12.8°
3
Windvlaag: 1.2 m/s
81%
12:00
16°
998.1 hPa 3.9 mm
23%
12.9°
3
Windvlaag: 1.5 m/s
79%
13:00
17°
998.0 hPa 3.9 mm
61%
12.9°
3
Windvlaag: 1.4 m/s
67%
14:00
17°
998.8 hPa 6.3 mm
25%
13.3°
3
Windvlaag: 0.4 m/s
69%
15:00
17°
998.9 hPa
76%
13.6°
3
Windvlaag: 0.5 m/s
88%
16:00
17°
999.0 hPa 6.5 mm
82%
13.5°
2
Windvlaag: 0.6 m/s
78%
17:00
16°
999.3 hPa 6.8 mm
25%
13.6°
2
Windvlaag: 0.6 m/s
87%
18:00
16°
999.4 hPa 6.7 mm
25%
13.8°
2
Windvlaag: 0.6 m/s
71%
19:00
15°
999.7 hPa
28%
13.8°
2
Windvlaag: 0.6 m/s
63%
20:00
14°
1001.4 hPa 19.9 mm
100%
13.0°
1
Windvlaag: 5.9 m/s
60%
21:00
13°
1001.5 hPa 19.9 mm
100%
12.7°
1
Windvlaag: 7 m/s
65%
22:00
13°
1001.6 hPa 19.9 mm
100%
12.4°
1
Windvlaag: 8.4 m/s
70%
Temp/Neerslag /Baro Onweer/Dauwpunt
    Temp Baro Neerslag Dauwpunt Wind Bewolking  
 06:56     19:03    Daglengte: 12:07 Morgen
01:00
15°
1002.6 hPa 5.6 mm 14.4°
2
86%
04:00
14°
1003.1 hPa   13.3°
3
80%
07:00
13°
1004.5 hPa   12.2°
3
81%
10:00
16°
1005.7 hPa   12.9°
3
73%
13:00
18°
1006.1 hPa   11.3°
4
12%
16:00
18°
1006.1 hPa   9.2°
4
66%
19:00
15°
1005.9 hPa   9.9°
3
50%
22:00
14°
1005.2 hPa   10.1°
4
67%
 06:57     19:00    Daglengte: 12:03 Dinsdag 24 Sep
01:00
14°
1003.4 hPa 5.7 mm 11.6°
4
91%
04:00
14°
1001.1 hPa 2.6 mm 13.1°
4
90%
07:00
14°
999.8 hPa   13.6°
4
86%
10:00
16°
998.8 hPa 3.1 mm 14.4°
3
88%
13:00
16°
997.7 hPa 10.1 mm 14.9°
3
87%
16:00
16°
995.7 hPa 10.5 mm 15.3°
2
100%
19:00
15°
995.3 hPa 12.8 mm 14.2°
1
100%
22:00
14°
995.4 hPa 12.2 mm 13.5°
2
97%
 06:59     18:58    Daglengte: 11:59 Woensdag 25 Sep
01:00
14°
995.1 hPa 10.1 mm 13.1°
2
91%
04:00
13°
995.5 hPa 12.8 mm 12.5°
2
93%
07:00
12°
996.1 hPa 8.0 mm 11.9°
2
90%
10:00
14°
997.3 hPa 9.2 mm 12.6°
2
78%
13:00
17°
998.0 hPa 7.8 mm 12.9°
3
67%
16:00
17°
999.0 hPa 12.8 mm 13.5°
2
78%
19:00
15°
999.7 hPa 13.6 mm 13.8°
2
63%
22:00
13°
1001.6 hPa 59.7 mm 12.4°
1
70%
 07:01     18:55    Daglengte: 11:54 Donderdag 26 Sep
01:00
12°
1001.8 hPa 60.5 mm 12.0°
1
100%
04:00
12°
1001.6 hPa 32.1 mm 11.0°
2
92%
07:00
11°
1001.3 hPa 35.5 mm 10.5°
3
92%
10:00
13°
1000.9 hPa 35.6 mm 12.1°
4
88%
13:00
15°
1000.5 hPa 35.6 mm 13.7°
5
84%
16:00
15°
1001.0 hPa 35.8 mm 12.5°
4
47%
19:00
14°
1001.6 hPa 35.8 mm 11.0°
3
9%
22:00
13°
1002.2 hPa 35.8 mm 10.5°
3
23%
 07:03     18:52    Daglengte: 11:49 Vrijdag 27 Sep
01:00
12°
1002.8 hPa 35.8 mm 9.9°
3
37%
04:00
11°
1002.8 hPa 35.8 mm 9.6°
2
62%
07:00
11°
1002.7 hPa 35.8 mm 9.2°
2
87%
10:00
14°
1003.1 hPa 35.8 mm 9.8°
3
81%
13:00
16°
1003.3 hPa 36.2 mm 9.8°
4
74%
16:00
15°
1003.3 hPa 37.6 mm 9.7°
4
61%
19:00
13°
1003.4 hPa 38.0 mm 9.3°
3
48%
22:00
12°
1003.5 hPa 38.0 mm 9.7°
3
69%
 07:05     18:50    Daglengte: 11:45 Zaterdag 28 Sep
01:00
12°
1003.4 hPa 38.2 mm 10.1°
4
91%
04:00
11°
1003.3 hPa 38.2 mm 9.5°
3
62%
07:00
11°
1003.1 hPa 38.4 mm 9.0°
3
33%
10:00
13°
1003.7 hPa 39.0 mm 9.6°
4
32%
13:00
16°
1004.3 hPa 39.2 mm 9.5°
6
30%
16:00
14°
1004.4 hPa 40.3 mm 9.3°
5
54%
19:00
13°
1004.6 hPa 40.4 mm 8.8°
4
78%
22:00
12°
1004.8 hPa 40.4 mm 8.8°
4
42%
 07:07     18:47    Daglengte: 11:40 Zondag 29 Sep
01:00
11°
1004.9 hPa 40.4 mm 8.7°
4
6%
04:00
10°
1004.5 hPa 40.4 mm 8.7°
4
14%
07:00
10°
Voelt als: 7.6°
1004.3 hPa 40.4 mm 8.6°
4
21%
10:00
12°
1004.8 hPa 40.4 mm 8.8°
4
56%
13:00
15°
1005.3 hPa 40.8 mm 8.5°
3
92%
16:00
13°
1006.3 hPa 42.5 mm 8.9°
3
52%
19:00
11°
1007.4 hPa 44.8 mm 9.0°
2
12%
22:00
11°
1009.7 hPa   8.8°
4
38%
 07:09     18:45    Daglengte: 11:36 Maandag 30 Sep
01:00
10°
1012.0 hPa 104.3 mm 8.5°
5
65%
07:00
10°
1016.6 hPa 106.3 mm 7.4°
5
46%
13:00
12°
1021.2 hPa 106.4 mm 4.5°
5
90%
19:00
10°
Voelt als: 8.4°
1022.9 hPa 106.8 mm 5.7°
3
82%
 07:11     18:42    Daglengte: 11:31 Dinsdag 01 Okt
01:00
Voelt als: 5.7°
1024.8 hPa 106.9 mm 4.6°
2
45%
07:00
Voelt als: 5.0°
1024.7 hPa 106.9 mm 4.3°
1
70%
13:00
12°
1025.2 hPa 106.9 mm 5.2°
2
92%
19:00
11°
1023.3 hPa 106.9 mm 7.4°
2
89%
 07:13     18:40    Daglengte: 11:27 Woensdag 02 Okt
01:00
Voelt als: 7.7°
1022.0 hPa 106.9 mm 7.4°
3
90%
07:00
Voelt als: 7.0°
1018.9 hPa 106.9 mm 7.1°
2
87%
13:00
16°
1017.4 hPa 106.9 mm 9.2°
3
91%
19:00
10°
1011.2 hPa 1.9 mm 5.9°
3
64%
 07:14     18:37    Daglengte: 11:23 Donderdag 03 Okt
01:00
Voelt als: 7.2°
1012.4 hPa 1.5 mm 5.0°
3
55%
07:00
Voelt als: 7.5°
1012.0 hPa 1.0 mm 5.2°
2
60%
13:00
10°
1012.4 hPa 1.9 mm 5.6°
2
64%
19:00
10°
1011.6 hPa 1.4 mm 5.7°
3
64%
 07:16     18:35    Daglengte: 11:19 Vrijdag 04 Okt
01:00
Voelt als: 7.6°
1011.3 hPa 1.6 mm 5.6°
3
53%
07:00
Voelt als: 7.3°
1010.8 hPa 0.5 mm 5.8°
3
56%
13:00
11°
1012.0 hPa 0.4 mm 6.9°
4
55%
19:00
11°
1011.8 hPa 0.5 mm 6.9°
4
60%
 07:18     18:32    Daglengte: 11:14 Zaterdag 05 Okt
01:00
10°
Voelt als: 8.6°
1012.1 hPa 1.3 mm 6.5°
3
62%
07:00
10°
Voelt als: 7.7°
1011.7 hPa 0.7 mm 6.3°
4
59%
13:00
12°
1012.2 hPa 0.7 mm 7.7°
5
48%
19:00
12°
1011.6 hPa 0.5 mm 8.1°
4
57%
 07:20     18:30    Daglengte: 11:10 Zondag 06 Okt
01:00
11°
1011.9 hPa 0.5 mm 7.7°
5
58%
07:00
11°
1012.5 hPa 0.1 mm 7.4°
5
47%
13:00
13°
1014.1 hPa 0.8 mm 8.7°
4
52%
19:00
12°
1015.2 hPa 0.8 mm 8.3°
3
53%
 07:22     18:27    Daglengte: 11:05 Maandag 07 Okt
01:00
11°
1016.0 hPa 0.9 mm 7.7°
4
48%
07:00
10°
1015.7 hPa   7.3°
4
41%
13:00
13°
1016.4 hPa 0.3 mm 8.8°
5
47%
19:00
12°
1016.8 hPa 0.4 mm 8.8°
3
52%
  CAPE Lifted Index Hail Supercell Tornado SRH 3km CL BTM PRES CL TOP PRES Swiss DWD icon SMHI TS
 06:54     19:05    Daglengte: 12:11 Vandaag
23:00 0 J/kg 2.4 K 0 % 0 % 0 % 0 m²/s² 0 0 2.49 61
 06:56     19:03    Daglengte: 12:07 Morgen
00:00 0 J/kg 2.5 K 0 % 0 % 0 % 0 m²/s² 0 0 2.5 61
01:00 0 J/kg 2.6 K 0 % 0 % 0 % 0 m²/s² 0 0 2.81 51
02:00 21 J/kg 2.1 K 0 % 0 % 0 % 0 m²/s² 0 0 5.58 45
03:00 40 J/kg 1.9 K 0 % 0 % 0 % 0 m²/s² 0 0 6.49 45
04:00 10 J/kg 1.9 K 0 % 0 % 0 % 0 m²/s² 0 0 6.82 45
05:00 2 J/kg 1.7 K 0 % 0 % 0 % 0 m²/s² 0 0 5.6 45
06:00 0 J/kg 1.8 K 0 % 0 % 0 % 0 m²/s² 0 0 5.61 45
07:00 0 J/kg 2.2 K 0 % 0 % 0 % 0 m²/s² 0 0 5.44 45
08:00 0 J/kg 2.2 K 0 % 0 % 0 % 0 m²/s² 0 0 5.17 45
09:00 0 J/kg 1.9 K 0 % 0 % 0 % 0 m²/s² 0 0 4.78 3
10:00 20 J/kg 1.5 K 0 % 0 % 0 % 0 m²/s² 0 0 4.41 2
11:00 21 J/kg 1.3 K 0 % 0 % 0 % 0 m²/s² 0 0 3.67 1
12:00 32 J/kg 1.4 K 0 % 0 % 0 % 0 m²/s² 0 0 3.05 2
13:00 37 J/kg 2.1 K 0 % 0 % 0 % 0 m²/s² 0 0 4.62 2
14:00 7 J/kg 3.1 K 0 % 0 % 0 % 0 m²/s² 0 0 6.7 95
15:00 4 J/kg 3.9 K 0 % 0 % 0 % 0 m²/s² 0 0 9.99 80
16:00 0 J/kg 5.3 K 0 % 0 % 0 % 0 m²/s² 0 0 13.16 3
17:00 0 J/kg 6.2 K 0 % 0 % 0 % 0 m²/s² 0 0 13.55 3
18:00 0 J/kg 6.6 K 0 % 0 % 0 % 0 m²/s² 0 0 12.87 1
19:00 0 J/kg 5.7 K 0 % 0 % 0 % 0 m²/s² 0 0 11.64 2
20:00 0 J/kg 5.5 K 0 % 0 % 0 % 0 m²/s² 0 0 9.52 1
21:00 0 J/kg 4.9 K 0 % 0 % 0 % 0 m²/s² 0 0 6.7 2
22:00 0 J/kg 4.4 K 0 % 0 % 0 % 0 m²/s² 0 0 4.7 3
23:00 0 J/kg 4.6 K 0 % 0 % 0 % 0 m²/s² 0 0 4.63 3
 06:57     19:00    Daglengte: 12:03 Dinsdag 24 Sep
00:00 0 J/kg 2.1 K 0 % 0 % 0 % 0 m²/s² 0 0 2.19 61
01:00 0 J/kg 1.5 K 0 % 0 % 0 % 0 m²/s² 0 0 2.49 61
02:00 0 J/kg 1.1 K 0 % 0 % 0 % 0 m²/s² 0 0 2.66 61
03:00 0 J/kg 0.5 K 0 % 0 % 0 % 0 m²/s² 0 0 1.67 61
04:00 0 J/kg 0.7 K 0 % 0 % 0 % 0 m²/s² 0 0 0.91 80
05:00 0 J/kg -0.8 K 0 % 0 % 0 % 0 m²/s² 0 0 -0.38 3
06:00 13 J/kg -0.7 K 0 % 0 % 0 % 0 m²/s² 0 0 0.32 3
07:00 70 J/kg -0.5 K 0 % 0 % 0 % 0 m²/s² 0 0 0.34 3
08:00 56 J/kg -0.2 K 0 % 0 % 0 % 0 m²/s² 0 0 0.73 3
09:00 118 J/kg 0.3 K 0 % 0 % 0 % 0 m²/s² 0 0 1.14 3
10:00 159 J/kg 0.1 K 0 % 0 % 0 % 0 m²/s² 0 0 0.58 3
11:00 87 J/kg 0.0 K 0 % 0 % 0 % 0 m²/s² 0 0 1.23 3
12:00 117 J/kg 0.2 K 0 % 0 % 0 % 0 m²/s² 0 0 1.49 80
13:00 134 J/kg 0.2 K 0 % 0 % 0 % 0 m²/s² 0 0 1.04 80
14:00 78 J/kg 0.5 K 0 % 0 % 0 % 0 m²/s² 0 0 0.68 80
15:00 65 J/kg 0.6 K 0 % 0 % 0 % 0 m²/s² 0 0 0.63 80
16:00 106 J/kg 0.5 K 0 % 0 % 0 % 0 m²/s² 0 0 0.53 3
17:00 118 J/kg 0.2 K 0 % 0 % 0 % 0 m²/s² 0 0 0.29 61
18:00 61 J/kg 1.0 K 0 % 0 % 0 % 0 m²/s² 0 0 1.09 80
19:00 91 J/kg 0.9 K 0 % 0 % 0 % 0 m²/s² 0 0 1.5 61
20:00 30 J/kg 2.2 K 0 % 0 % 0 % 0 m²/s² 0 0 3.13 61
21:00 0 J/kg 2.7 K 0 % 0 % 0 % 0 m²/s² 0 0 3.99 61
22:00 0 J/kg 2.6 K 0 % 0 % 0 % 0 m²/s² 0 0 4.1 61
23:00 0 J/kg 2.5 K 0 % 0 % 0 % 0 m²/s² 0 0 3.88 61
 06:59     18:58    Daglengte: 11:59 Woensdag 25 Sep
00:00 0 J/kg 0.4 K 0 % 0 % 0 % 0 m²/s² 0 0 1.84 61
01:00 0 J/kg 0.0 K 0 % 0 % 0 % 0 m²/s² 0 0 1.41 61
02:00 0 J/kg 0.2 K 0 % 0 % 0 % 0 m²/s² 0 0 2.03 3
03:00 0 J/kg 0.1 K 0 % 0 % 0 % 0 m²/s² 0 0 1.63 3
04:00 0 J/kg -0.1 K 0 % 0 % 0 % 0 m²/s² 0 0 2 3
05:00 0 J/kg 0.4 K 0 % 0 % 0 % 0 m²/s² 0 0 2.89 1
06:00 0 J/kg 0.9 K 0 % 0 % 0 % 0 m²/s² 0 0 2.55 2
07:00 0 J/kg 1.3 K 0 % 0 % 0 % 0 m²/s² 0 0 1.99 3
08:00 0 J/kg 1.7 K 0 % 0 % 0 % 0 m²/s² 0 0 2.09 80
09:00 0 J/kg 1.9 K 0 % 0 % 0 % 0 m²/s² 0 0 2.38 80
10:00 0 J/kg 1.8 K 0 % 0 % 0 % 0 m²/s² 0 0 2.4 61
11:00 0 J/kg 1.6 K 0 % 0 % 0 % 0 m²/s² 0 0 2.38 3
12:00 41 J/kg 1.2 K 0 % 0 % 0 % 0 m²/s² 0 0 2.31 3
13:00 37 J/kg 0.8 K 0 % 0 % 0 % 0 m²/s² 0 0 2.36 3
14:00 53 J/kg 0.7 K 0 % 0 % 0 % 0 m²/s² 0 0 2.38 3
15:00 86 J/kg 0.3 K 0 % 0 % 0 % 0 m²/s² 0 0 1.68 3
16:00 114 J/kg -0.3 K 0 % 0 % 0 % 0 m²/s² 0 0 0.57 3
17:00 86 J/kg 0.7 K 0 % 0 % 0 % 0 m²/s² 0 0 1.36 3
18:00 86 J/kg 1.1 K 0 % 0 % 0 % 0 m²/s² 0 0 1.85 3
19:00 60 J/kg 1.5 K 0 % 0 % 0 % 0 m²/s² 0 0 2.43 3
20:00 3 J/kg 3.8 K 0 % 0 % 0 % 0 m²/s² 0 0 6.2
21:00 0 J/kg 4.2 K 0 % 0 % 0 % 0 m²/s² 0 0 8.34
22:00 0 J/kg 4.7 K 0 % 0 % 0 % 0 m²/s² 0 0 7.1
Temp Baro Wind Neerslag
  EWN Forecast EWN WRFDA DWD ICON FMI HIRLAM MET Norway GFS
 06:56     19:03    Daglengte: 12:07 Morgen
01:00 15.1° 1002.6 hPa 1.6 m/s 5.6 mm 15.3° 1002.4 hPa 1.3 m/s 23.2 mm 14.7° 1003.0 hPa 0.5 m/s 0.4 mm 15.7° 1002.1 hPa 2.6 m/s 0.0 mm 15.1° 1002.6 hPa 1.5 m/s 4.6 mm 15.4° 1003.1 hPa 1.8 m/s
04:00 14.1° 1003.1 hPa 2.6 m/s 0.0 mm 14.4° 1002.7 hPa 2.3 m/s 25.6 mm 14.2° 1003.9 hPa 0.9 m/s 0.0 mm 14.2° 1003.0 hPa 3.7 m/s 0.0 mm 13.9° 1003.2 hPa 2.6 m/s 0.0 mm 14.3° 1003.2 hPa 2.0 m/s
07:00 12.9° 1004.5 hPa 2.7 m/s 0.0 mm 13.4° 1003.5 hPa 2.6 m/s 25.6 mm 12.6° 1004.7 hPa 1.0 m/s 0.0 mm 13.0° 1004.1 hPa 3.2 m/s 0.0 mm 12.8° 1004.8 hPa 2.7 m/s 0.0 mm 13.4° 1004.6 hPa 2.2 m/s
10:00 15.5° 1005.7 hPa 3.0 m/s 0.0 mm 15.7° 1004.2 hPa 3.0 m/s 25.6 mm 15.7° 1005.8 hPa 1.2 m/s 0.0 mm 14.8° 1005.0 hPa 4.0 m/s 0.0 mm 15.9° 1006.1 hPa 3.3 m/s 0.0 mm 16.2° 1005.5 hPa 2.3 m/s
13:00 17.7° 1006.1 hPa 3.8 m/s 0.0 mm 18.5° 1005.1 hPa 4.3 m/s 25.6 mm 18.7° 1005.9 hPa 2.9 m/s 0.2 mm 17.1° 1005.5 hPa 3.8 m/s 0.0 mm 17.6° 1006.5 hPa 3.9 m/s 0.0 mm 18.1° 1006.6 hPa 5.4 m/s
16:00 17.9° 1006.1 hPa 4.0 m/s 0.0 mm 18.3° 1005.6 hPa 4.7 m/s 25.6 mm 18.4° 1005.9 hPa 3.1 m/s 1.1 mm 16.5° 1005.7 hPa 4.1 m/s 0.0 mm 18.1° 1006.6 hPa 4.4 m/s 0.0 mm 17.6° 1006.7 hPa 4.6 m/s
19:00 15.0° 1005.9 hPa 2.8 m/s 0.0 mm 17.1° 1004.9 hPa 3.3 m/s 25.6 mm 16.0° 1005.5 hPa 1.6 m/s 0.0 mm 14.5° 1006.1 hPa 1.9 m/s 0.0 mm 14.8° 1006.2 hPa 2.8 m/s 0.0 mm 15.7° 1005.9 hPa 3.5 m/s
22:00 14.3° 1005.2 hPa 4.3 m/s 0.0 mm 16.0° 1004.8 hPa 5.4 m/s 25.6 mm 14.2° 1005.0 hPa 2.3 m/s 0.0 mm 13.7° 1006.1 hPa 3.6 m/s 0.0 mm 14.4° 1005.2 hPa 4.5 m/s 0.0 mm 15.3° 1005.5 hPa 6.1 m/s
 06:57     19:00    Daglengte: 12:03 Dinsdag 24 Sep
01:00 14.0° 1003.4 hPa 4.4 m/s 5.7 mm 14.8° 1003.7 hPa 4.9 m/s 26.8 mm 13.9° 1002.6 hPa 3.5 m/s 0.3 mm 13.5° 1004.6 hPa 4.1 m/s 0.0 mm 13.9° 1003.5 hPa 4.3 m/s 1.6 mm 14.7° 1003.9 hPa 5.7 m/s
04:00 14.1° 1001.1 hPa 4.2 m/s 2.6 mm 14.7° 1001.5 hPa 5.6 m/s 29.8 mm 13.5° 1000.4 hPa 3.4 m/s 3.1 mm 13.6° 1003.0 hPa 4.5 m/s 0.0 mm 14.1° 1000.9 hPa 3.6 m/s 0.0 mm 14.6° 1001.9 hPa 4.4 m/s
07:00 14.4° 999.8 hPa 3.9 m/s 0.0 mm 15.1° 999.8 hPa 4.6 m/s 41.4 mm 14.0° 999.0 hPa 2.7 m/s 0.0 mm 14.0° 1002.1 hPa 3.9 m/s 0.0 mm 14.7° 999.5 hPa 3.9 m/s 0.0 mm 15.0° 1000.1 hPa 3.5 m/s
10:00 15.8° 998.8 hPa 3.2 m/s 3.1 mm 16.5° 998.9 hPa 4.3 m/s 42.7 mm 16.1° 998.0 hPa 3.0 m/s 0.0 mm 14.5° 1001.6 hPa 2.6 m/s 0.0 mm 16.1° 998.4 hPa 4.0 m/s 1.0 mm 16.4° 998.3 hPa 3.8 m/s
13:00 16.0° 997.7 hPa 2.9 m/s 10.1 mm 17.0° 996.8 hPa 7.0 m/s 42.9 mm 16.7° 997.4 hPa 2.6 m/s 0.6 mm 16.0° 1001.0 hPa 2.7 m/s 0.0 mm 15.7° 997.1 hPa 2.6 m/s 5.2 mm 15.6° 996.6 hPa 4.8 m/s
16:00 16.0° 995.7 hPa 2.1 m/s 10.5 mm 15.6° 994.8 hPa 5.6 m/s 46.0 mm 16.4° 996.2 hPa 1.9 m/s 1.2 mm 15.9° 995.6 hPa 1.9 m/s 4.3 mm 15.3° 995.4 hPa 4.4 m/s
19:00 14.8° 995.3 hPa 1.1 m/s 12.8 mm 15.8° 994.2 hPa 2.8 m/s 55.0 mm 14.7° 995.7 hPa 1.0 m/s 1.6 mm 14.5° 995.2 hPa 0.4 m/s 2.9 mm 14.9° 995.3 hPa 4.5 m/s
22:00 14.2° 995.4 hPa 1.9 m/s 12.2 mm 14.2° 995.8 hPa 2.8 m/s 56.2 mm 14.2° 995.4 hPa 1.2 m/s 3.4 mm 14.0° 995.1 hPa 1.9 m/s 2.0 mm 14.1° 996.4 hPa 4.0 m/s
 06:59     18:58    Daglengte: 11:59 Woensdag 25 Sep
01:00 13.9° 995.1 hPa 2.2 m/s 10.1 mm 12.6° 995.5 hPa 2.3 m/s 56.2 mm 13.9° 994.9 hPa 1.6 m/s 2.5 mm 14.0° 995.0 hPa 2.2 m/s 4.3 mm 13.7° 996.2 hPa 3.5 m/s
04:00 13.1° 995.5 hPa 2.0 m/s 12.8 mm 12.1° 995.9 hPa 1.4 m/s 56.2 mm 13.2° 995.2 hPa 1.4 m/s 0.0 mm 13.1° 995.6 hPa 2.2 m/s 3.0 mm 13.2° 997.0 hPa 2.8 m/s
07:00 12.3° 996.1 hPa 1.7 m/s 8.0 mm 10.5° 996.2 hPa 1.2 m/s 56.2 mm 12.1° 995.5 hPa 1.9 m/s 0.0 mm 12.4° 996.8 hPa 1.5 m/s 1.2 mm 13.1° 997.1 hPa 1.9 m/s
10:00 13.6° 997.3 hPa 2.1 m/s 9.2 mm 13.6° 997.3 hPa 0.7 m/s 56.2 mm 13.1° 996.9 hPa 2.9 m/s 0.6 mm 14.0° 998.4 hPa 2.1 m/s 2.3 mm 13.5° 998.6 hPa 1.7 m/s
13:00 16.6° 998.0 hPa 2.8 m/s 7.8 mm 16.9° 997.9 hPa 2.5 m/s 56.2 mm 17.6° 996.9 hPa 4.2 m/s 0.0 mm 16.6° 999.9 hPa 2.7 m/s 0.4 mm 13.9° 999.7 hPa 1.5 m/s
16:00 16.8° 999.0 hPa 2.2 m/s 12.8 mm 17.1° 997.9 hPa 2.2 m/s 56.7 mm 17.0° 996.5 hPa 3.6 m/s 0.0 mm 16.5° 1000.6 hPa 1.8 m/s 0.4 mm 15.1° 999.4 hPa 1.9 m/s
19:00 14.6° 999.7 hPa 1.7 m/s 13.6 mm 16.7° 997.8 hPa 2.3 m/s 59.5 mm 15.2° 997.1 hPa 2.4 m/s 0.0 mm 13.8° 1001.8 hPa 1.1 m/s 0.5 mm 14.5° 999.8 hPa 2.7 m/s
22:00 12.9° 1001.6 hPa 1.3 m/s 59.7 mm 13.4° 997.3 hPa 3.7 m/s 59.7 mm 12.9° 1002.3 hPa 0.9 m/s 13.1° 998.4 hPa 3.2 m/s
 07:01     18:55    Daglengte: 11:54 Donderdag 26 Sep
01:00 12.2° 1001.8 hPa 1.4 m/s 60.5 mm 14.3° 995.0 hPa 6.1 m/s 60.5 mm 11.9° 1002.9 hPa 0.6 m/s 13.6° 995.7 hPa 6.3 m/s
04:00 11.7° 1001.6 hPa 2.1 m/s 32.1 mm 11.4° 1002.2 hPa 1.9 m/s 14.8° 994.9 hPa 4.4 m/s 32.1 mm
07:00 11.4° 1001.3 hPa 2.6 m/s 35.5 mm 11.2° 1001.9 hPa 2.6 m/s 13.4° 994.7 hPa 2.6 m/s 35.5 mm
10:00 13.3° 1000.9 hPa 3.7 m/s 35.6 mm 13.1° 1001.3 hPa 3.8 m/s 15.4° 996.3 hPa 3.0 m/s 35.6 mm
13:00 15.2° 1000.5 hPa 5.0 m/s 35.6 mm 15.1° 1000.8 hPa 4.9 m/s 16.8° 997.1 hPa 5.7 m/s 35.6 mm
16:00 14.7° 1001.0 hPa 3.9 m/s 35.8 mm 14.5° 1001.4 hPa 3.7 m/s 16.6° 996.8 hPa 6.6 m/s 35.8 mm
19:00 13.9° 1001.6 hPa 2.6 m/s 35.8 mm 13.9° 1002.0 hPa 2.4 m/s 14.3° 996.7 hPa 4.9 m/s 35.8 mm
22:00 12.8° 1002.2 hPa 2.7 m/s 35.8 mm 12.7° 1002.6 hPa 2.5 m/s 13.9° 997.3 hPa 4.8 m/s 35.8 mm
 07:03     18:52    Daglengte: 11:49 Vrijdag 27 Sep
01:00 11.6° 1002.8 hPa 2.7 m/s 35.8 mm 11.5° 1003.3 hPa 2.6 m/s 12.3° 997.1 hPa 4.1 m/s 35.8 mm
04:00 11.1° 1002.8 hPa 2.3 m/s 35.8 mm 11.0° 1003.3 hPa 2.2 m/s 11.7° 996.8 hPa 3.9 m/s 35.8 mm
07:00 10.6° 1002.7 hPa 1.9 m/s 35.8 mm 10.5° 1003.3 hPa 1.8 m/s 11.6° 996.6 hPa 3.4 m/s 35.8 mm
10:00 13.5° 1003.1 hPa 3.2 m/s 35.8 mm 13.5° 1003.7 hPa 3.0 m/s 13.9° 996.0 hPa 5.3 m/s 35.8 mm
13:00 16.4° 1003.3 hPa 4.4 m/s 36.2 mm 16.5° 1004.1 hPa 4.3 m/s 15.6° 994.9 hPa 5.8 m/s 36.2 mm
16:00 14.8° 1003.3 hPa 3.7 m/s 37.6 mm 14.8° 1004.2 hPa 3.6 m/s 13.8° 993.7 hPa 5.4 m/s 37.6 mm
19:00 13.1° 1003.4 hPa 3.0 m/s 38.0 mm 13.2° 1004.3 hPa 2.9 m/s 12.3° 993.7 hPa 4.1 m/s 38.0 mm
22:00 12.5° 1003.5 hPa 3.3 m/s 38.0 mm 12.6° 1004.3 hPa 3.3 m/s 11.2° 994.3 hPa 3.5 m/s 38.0 mm
 07:05     18:50    Daglengte: 11:45 Zaterdag 28 Sep
01:00 11.9° 1003.4 hPa 3.7 m/s 38.2 mm 12.0° 1004.3 hPa 3.7 m/s 11.4° 993.9 hPa 3.4 m/s 38.2 mm
04:00 11.3° 1003.3 hPa 3.2 m/s 38.2 mm 11.3° 1004.1 hPa 3.2 m/s 10.9° 993.7 hPa 3.6 m/s 38.2 mm
07:00 10.8° 1003.1 hPa 2.8 m/s 38.4 mm 10.7° 1004.0 hPa 2.7 m/s 11.3° 993.7 hPa 3.4 m/s 38.4 mm
10:00 13.1° 1003.7 hPa 4.3 m/s 39.0 mm 13.2° 1004.5 hPa 4.2 m/s 12.4° 994.5 hPa 6.0 m/s 39.0 mm
13:00 15.7° 1004.3 hPa 5.7 m/s 39.2 mm 15.7° 1005.0 hPa 5.7 m/s 15.7° 996.1 hPa 6.2 m/s 39.2 mm
16:00 14.4° 1004.4 hPa 5.0 m/s 40.3 mm 14.3° 1005.1 hPa 4.8 m/s 15.3° 997.2 hPa 7.7 m/s 40.3 mm
19:00 12.9° 1004.6 hPa 4.1 m/s 40.4 mm 13.0° 1005.2 hPa 3.9 m/s 12.1° 998.6 hPa 6.3 m/s 40.4 mm
22:00 12.0° 1004.8 hPa 4.2 m/s 40.4 mm 12.1° 1005.2 hPa 4.0 m/s 11.3° 1000.2 hPa 6.0 m/s 40.4 mm
 07:07     18:47    Daglengte: 11:40 Zondag 29 Sep
01:00 11.0° 1004.9 hPa 4.2 m/s 40.4 mm 11.1° 1005.3 hPa 4.1 m/s 10.4° 1000.0 hPa 5.7 m/s 40.4 mm
04:00 10.3° 1004.5 hPa 4.1 m/s 40.4 mm 10.4° 1005.0 hPa 4.0 m/s 9.5° 1000.1 hPa 5.0 m/s 40.4 mm
07:00 9.6° 1004.3 hPa 3.9 m/s 40.4 mm 9.7° 1004.6 hPa 3.9 m/s 8.9° 1000.6 hPa 4.2 m/s 40.4 mm
10:00 12.3° 1004.8 hPa 3.7 m/s 40.4 mm 12.3° 1005.2 hPa 3.7 m/s 11.5° 1001.0 hPa 4.0 m/s 40.4 mm
13:00 14.9° 1005.3 hPa 3.4 m/s 40.8 mm 15.0° 1005.7 hPa 3.5 m/s 13.9° 1001.4 hPa 2.8 m/s 40.8 mm
16:00 13.2° 1006.3 hPa 2.6 m/s 42.5 mm 13.1° 1006.8 hPa 2.6 m/s 13.7° 1000.9 hPa 1.6 m/s 42.5 mm
19:00 11.2° 1007.4 hPa 1.9 m/s 44.8 mm 11.2° 1007.9 hPa 1.8 m/s 11.0° 1001.5 hPa 2.6 m/s 44.8 mm
22:00 10.8° 1009.7 hPa 3.5 m/s 51.2 mm 10.9° 1010.2 hPa 3.2 m/s 9.3° 1003.7 hPa 7.0 m/s 51.2 mm
 07:09     18:45    Daglengte: 11:36 Maandag 30 Sep
01:00 10.5° 1012.0 hPa 4.8 m/s 53.2 mm 10.7° 1012.6 hPa 4.6 m/s 7.9° 1005.8 hPa 7.0 m/s 53.2 mm
07:00 10.3° 1016.6 hPa 4.7 m/s 53.2 mm 10.9° 1017.2 hPa 4.6 m/s 4.3° 1010.1 hPa 5.4 m/s 53.2 mm
13:00 12.0° 1021.2 hPa 5.1 m/s 53.2 mm 12.3° 1022.0 hPa 5.1 m/s 9.2° 1012.7 hPa 4.8 m/s 53.2 mm
19:00 9.7° 1022.9 hPa 2.7 m/s 53.5 mm 9.9° 1023.9 hPa 2.6 m/s 7.5° 1012.3 hPa 3.4 m/s 53.5 mm
 07:11     18:42    Daglengte: 11:31 Dinsdag 01 Okt
01:00 6.9° 1024.8 hPa 1.9 m/s 53.5 mm 7.1° 1026.0 hPa 1.8 m/s 4.7° 1011.2 hPa 2.7 m/s 53.5 mm
07:00 5.7° 1024.7 hPa 1.3 m/s 53.5 mm 5.9° 1026.1 hPa 1.2 m/s 3.2° 1009.8 hPa 2.5 m/s 53.5 mm
13:00 12.1° 1025.2 hPa 1.9 m/s 53.5 mm 12.4° 1026.5 hPa 1.8 m/s 8.9° 1011.1 hPa 3.6 m/s 53.5 mm
19:00 11.2° 1023.3 hPa 2.4 m/s 53.5 mm 11.5° 1024.2 hPa 2.4 m/s 7.4° 1012.9 hPa 2.4 m/s 53.5 mm
 07:13     18:40    Daglengte: 11:27 Woensdag 02 Okt
01:00 9.1° 1022.0 hPa 2.7 m/s 53.5 mm 9.5° 1022.7 hPa 2.7 m/s 4.9° 1014.8 hPa 2.1 m/s 53.5 mm
07:00 8.4° 1018.9 hPa 2.4 m/s 53.5 mm 8.8° 1019.3 hPa 2.5 m/s 4.1° 1014.8 hPa 0.9 m/s 53.5 mm
13:00 16.1° 1017.4 hPa 3.5 m/s 53.5 mm 16.6° 1017.5 hPa 3.6 m/s 10.2° 1015.9 hPa 2.1 m/s 53.5 mm
19:00 10.2° 1011.2 hPa 2.9 m/s 1.9 mm
 07:14     18:37    Daglengte: 11:23 Donderdag 03 Okt
01:00 9.0° 1012.4 hPa 3.2 m/s 1.5 mm
07:00 8.8° 1012.0 hPa 2.3 m/s 1.0 mm
13:00 10.0° 1012.4 hPa 2.4 m/s 1.9 mm
19:00 10.3° 1011.6 hPa 2.7 m/s 1.4 mm
 07:16     18:35    Daglengte: 11:19 Vrijdag 04 Okt
01:00 9.4° 1011.3 hPa 3.2 m/s 1.6 mm
07:00 9.2° 1010.8 hPa 3.3 m/s 0.5 mm
13:00 11.3° 1012.0 hPa 4.4 m/s 0.4 mm
19:00 10.9° 1011.8 hPa 3.7 m/s 0.5 mm
 07:18     18:32    Daglengte: 11:14 Zaterdag 05 Okt
01:00 10.0° 1012.1 hPa 2.9 m/s 1.3 mm
07:00 9.6° 1011.7 hPa 3.6 m/s 0.7 mm
13:00 11.7° 1012.2 hPa 4.6 m/s 0.7 mm
19:00 11.6° 1011.6 hPa 4.1 m/s 0.5 mm
 07:20     18:30    Daglengte: 11:10 Zondag 06 Okt
01:00 11.0° 1011.9 hPa 4.8 m/s 0.5 mm
07:00 10.5° 1012.5 hPa 5.1 m/s 0.1 mm
13:00 12.8° 1014.1 hPa 4.2 m/s 0.8 mm
19:00 12.0° 1015.2 hPa 3.3 m/s 0.8 mm
 07:22     18:27    Daglengte: 11:05 Maandag 07 Okt
01:00 10.7° 1016.0 hPa 4.5 m/s 0.9 mm
07:00 10.3° 1015.7 hPa 4.4 m/s 0.0 mm
13:00 12.7° 1016.4 hPa 4.7 m/s 0.3 mm
19:00 12.1° 1016.8 hPa 3.1 m/s 0.4 mm
FMI Hirlam - 7.5 km EWN WRFDA - 12 km DWD ICON - 7 km GFS - 25 km Basiskaart






























































Updatetijd (Europe/Brussels) Resolutie Lengte Stap
FMI Hirlam 19:00, 01:00, 07:00, 13:00 7.5 km 49h 1h
EWN WRFDA 21:30, 03:30, 09:30, 15:30 12 km 73h 1h
DWD ICON 17:45, 23:45, 05:45, 11:45 7 km 75h 1h
GFS 20:30, 02:30, 08:30, 14:30 25 km 237h 3h
30+ mm
25-30 mm
20-25 mm
15-20 mm
10-15 mm
6-10 mm
4-6 mm
2-4 mm
1-2 mm
0.5-1 mm
0.2-0.5 mm
0.1-0.2 mm
30+ mm
25-30 mm
20-25 mm
15-20 mm
10-15 mm
6-10 mm
4-6 mm
2-4 mm
1-2 mm
0.5-1 mm
0.2-0.5 mm
0.1-0.2 mm
Sneeuwval
Natte sneeuw
Hagel
Vorst
30+ mm
25-30 mm
20-25 mm
15-20 mm
10-15 mm
6-10 mm
4-6 mm
2-4 mm
1-2 mm
0.5-1 mm
0.2-0.5 mm
0.1-0.2 mm
Sneeuwval
Natte sneeuw
Hagel
Vorst
Onweer
50 mm
40 mm
30 mm
26 mm
22 mm
18 mm
14 mm
10 mm
9 mm
8 mm
7 mm
6 mm
5 mm
4.5 mm
4 mm
3.5 mm
3 mm
2.5 mm
2 mm
1.5 mm
1 mm
0.8 mm
0.6 mm
0.4 mm
0.2 mm
0.05 mm
35°
30°
25°
20°
15°
10°
-5°
-10°
-15°
-20°
-25°
-30°
-35°
33> m/s
29 m/s
25 m/s
21 m/s
17 m/s
14 m/s
11 m/s
8 m/s
5 m/s
3 m/s
0 m/s
2600 J/kg
2400 J/kg
2200 J/kg
2000 J/kg
1800 J/kg
1600 J/kg
1400 J/kg
1200 J/kg
1000 J/kg
800 J/kg
600 J/kg
400 J/kg
200 J/kg
70 dBZ
65 dBZ
60 dBZ
55 dBZ
50 dBZ
45 dBZ
40 dBZ
35 dBZ
30 dBZ
25 dBZ
20 dBZ
15 dBZ
10 dBZ
5 dBZ
-1 K
-2 K
-3 K
-4 K
-5 K
-6 K
-7 K
-8 K
-9 K
950 m²/s²
900 m²/s²
850 m²/s²
800 m²/s²
750 m²/s²
700 m²/s²
650 m²/s²
600 m²/s²
550 m²/s²
500 m²/s²
450 m²/s²
400 m²/s²
350 m²/s²
300 m²/s²
250 m²/s²
200 m²/s²
150 m²/s²
100 m²/s²
46 m/s
44 m/s
42 m/s
40 m/s
38 m/s
36 m/s
34 m/s
32 m/s
30 m/s
28 m/s
26 m/s
24 m/s
22 m/s
20 m/s
16 m/s
12 m/s
8 m/s
4 m/s
30 m/s
28 m/s
26 m/s
24 m/s
22 m/s
20 m/s
18 m/s
16 m/s
14 m/s
12 m/s
10 m/s
8 m/s
6 m/s
4 m/s
2 m/s
3.0
2.8
2.6
2.4
2.2
2.0
1.8
1.6
1.4
1.2
1.0
0.8
0.6
0.4
0.2
15
14
13
12
11
10
9
8
7
6
5
4
3
2
1
90%
80%
70%
60%
50%
40%
30%
20%
10%
42
40
38
36
34
32
30
28
26
24
22
20
18
16
14
12
90+ cm
80-90 cm
70-80 cm
60-70 cm
50-60 cm
40-50 cm
30-40 cm
20-30 cm
10-20 cm
1-10 cm
Sneeuwval
Natte sneeuw
Regen
>120 mm
115 mm
110 mm
105 mm
100 mm
95 mm
90 mm
85 mm
80 mm
75 mm
70 mm
65 mm
60 mm
55 mm
50 mm
45 mm
45 mm
40 mm
35 mm
30 mm
25 mm
20 mm
15 mm
10 mm
5 mm
0.1 mm
960 hPa
880 hPa
800 hPa
720 hPa
640 hPa
560 hPa
584 gpdm
568 gpdm
552 gpdm
536 gpdm